TimePDT,TemperatureF,Dew PointF,Humidity,Sea Level PressureIn,VisibilityMPH,Wind Direction,Wind SpeedMPH,Gust SpeedMPH,PrecipitationIn,Events,Conditions,WindDirDegrees,DateUTC
12:53 AM,55.0,52.0,89,30.05,6.0,SW,4.6,-,N/A,,Overcast,230,2013-03-15 07:53:00
1:37 AM,55.4,51.8,88,30.05,7.0,SSW,3.5,-,N/A,,Overcast,210,2013-03-15 08:37:00
1:53 AM,55.0,52.0,89,30.04,6.0,South,3.5,-,N/A,,Overcast,180,2013-03-15 08:53:00
2:53 AM,55.0,52.0,89,30.03,5.0,Calm,Calm,-,N/A,,Overcast,0,2013-03-15 09:53:00
3:53 AM,55.9,52.0,87,30.00,4.0,Calm,Calm,-,N/A,,Overcast,0,2013-03-15 10:53:00
4:53 AM,55.0,52.0,89,30.02,3.0,West,3.5,-,N/A,,Overcast,270,2013-03-15 11:53:00
5:53 AM,55.0,52.0,89,30.01,2.5,Calm,Calm,-,N/A,,Overcast,0,2013-03-15 12:53:00
6:53 AM,55.9,52.0,87,30.02,2.0,Calm,Calm,-,N/A,,Overcast,0,2013-03-15 13:53:00
7:48 AM,55.4,51.8,88,30.02,1.8,North,3.5,-,N/A,,Overcast,360,2013-03-15 14:48:00
7:53 AM,55.9,52.0,87,30.02,1.8,ENE,3.5,-,N/A,,Overcast,60,2013-03-15 14:53:00
8:19 AM,55.4,51.8,88,30.02,1.8,Calm,Calm,-,N/A,,Overcast,0,2013-03-15 15:19:00
8:53 AM,55.9,52.0,87,30.04,2.0,WSW,3.5,-,N/A,,Overcast,240,2013-03-15 15:53:00
9:53 AM,55.9,52.0,87,30.03,3.0,SSW,5.8,-,N/A,,Mostly Cloudy,200,2013-03-15 16:53:00
10:29 AM,57.2,51.8,82,30.04,3.0,SSW,5.8,-,N/A,,Haze,210,2013-03-15 17:29:00
10:53 AM,57.0,51.1,81,30.04,3.0,SW,6.9,-,N/A,,Haze,220,2013-03-15 17:53:00
11:53 AM,60.1,52.0,75,30.03,6.0,SSW,5.8,-,N/A,,Haze,210,2013-03-15 18:53:00
12:53 PM,61.0,52.0,72,30.01,7.0,SW,11.5,-,N/A,,Scattered Clouds,220,2013-03-15 19:53:00
1:53 PM,63.0,53.1,70,29.98,7.0,SW,8.1,16.1,N/A,,Scattered Clouds,230,2013-03-15 20:53:00
2:53 PM,62.1,52.0,70,29.97,9.0,SW,11.5,-,N/A,,Scattered Clouds,220,2013-03-15 21:53:00
3:53 PM,61.0,52.0,72,29.96,10.0,SW,9.2,-,N/A,,Scattered Clouds,230,2013-03-15 22:53:00
4:53 PM,60.1,52.0,75,29.96,10.0,SW,6.9,-,N/A,,Scattered Clouds,230,2013-03-15 23:53:00
5:53 PM,57.0,50.0,77,29.96,10.0,Variable,5.8,-,N/A,,Scattered Clouds,0,2013-03-16 00:53:00
6:53 PM,53.1,48.9,86,29.95,10.0,SSW,6.9,-,N/A,,Mostly Cloudy,210,2013-03-16 01:53:00
7:28 PM,53.6,50.0,88,29.96,6.0,West,5.8,-,N/A,,Mostly Cloudy,260,2013-03-16 02:28:00
7:53 PM,53.1,50.0,89,29.98,5.0,WSW,4.6,-,N/A,,Overcast,250,2013-03-16 02:53:00
8:18 PM,53.6,50.0,88,29.97,5.0,WSW,5.8,-,N/A,,Overcast,240,2013-03-16 03:18:00
8:53 PM,53.1,50.0,89,29.98,3.0,WSW,4.6,-,N/A,,Overcast,250,2013-03-16 03:53:00
8:58 PM,53.6,51.8,94,29.99,1.5,Variable,3.5,-,N/A,,Overcast,0,2013-03-16 03:58:00
9:53 PM,53.1,51.1,93,29.98,1.0,Variable,3.5,-,N/A,,Overcast,0,2013-03-16 04:53:00
10:53 PM,53.1,50.0,89,29.98,2.0,South,3.5,-,N/A,,Overcast,170,2013-03-16 05:53:00
11:07 PM,53.6,50.0,88,29.98,3.0,East,3.5,-,N/A,,Overcast,100,2013-03-16 06:07:00
11:53 PM,52.0,50.0,93,29.97,4.0,SW,4.6,-,N/A,,Overcast,230,2013-03-16 06:53:00